Date String (YYYY-MM-DD hh:mm:ss) UTC,Instrument flags,absolute air pressure of the measurement (hPa),sample flow rate (lpm),inlet stack bypass flow (lpm),air temperature of the measurement (°C),ambient temperature measured by the external sensor (°C),aerosol sample conditioner tube jacket temperature (°C),OPC LED temperature (°C),internal box temperature (°C),relative humidity of the measurement (%),span deviation,mass concentration of particles derived from Lorenz-Mie calculation of OPC scattering (μg/m³),mass concentration of particles derived from Lorenz-Mie calculation of OPC scattering (μg/m³),mass concentration of particles derived from Lorenz-Mie calculation of OPC scattering (μg/m³)
DateTimeUTC,F1_M11,P_M11,Q1_M11,Q2_M11,T1_M11,T2_M11,T3_M11,T4_M11,T5_M11,U1_M11,ZSPAN_M11,X0_M11,X2_M11,X1_M11
2023-07-16 14:00:00,SystemResetWarning,0835.7,5.00,000.00,029.6,025.4,000.0,038.0,030.8,25.3,0000.0,0010.64,0004.62,0004.02
2023-07-16 14:01:00,SystemResetWarning,0835.8,5.00,000.00,029.5,025.7,000.0,038.0,030.7,25.7,0000.0,0010.69,0004.69,0004.09
2023-07-16 14:02:00,SystemResetWarning,0835.8,4.99,000.00,029.5,026.2,000.0,038.0,030.8,26.1,0000.0,0010.47,0004.76,0004.17
2023-07-16 14:03:00,SystemResetWarning,0835.8,5.00,000.00,029.5,026.6,000.0,038.0,030.9,26.2,0000.0,0010.82,0004.87,0004.26
2023-07-16 14:04:00,SystemResetWarning,0835.9,5.00,000.00,029.5,026.9,000.0,038.0,030.9,26.6,0000.0,0011.02,0005.00,0004.40
2023-07-16 14:05:00,SystemResetWarning,0835.8,5.00,000.00,029.5,027.2,000.0,038.0,031.0,26.6,0000.0,0011.48,0005.25,0004.61
2023-07-16 14:06:00,SystemResetWarning,0835.8,5.00,000.00,029.5,027.5,000.0,038.0,031.0,26.7,0001.2,0012.89,0005.42,0004.79
2023-07-16 14:07:00,SystemResetWarning,0835.9,5.01,000.00,029.5,027.7,000.0,038.0,031.1,27.0,0001.3,0012.74,0005.60,0004.97
2023-07-16 14:08:00,SystemResetWarning,0835.9,5.01,000.00,029.5,027.9,000.0,038.0,031.1,27.2,0001.0,0012.78,0005.84,0005.22
2023-07-16 14:09:00,SystemResetWarning,0835.9,5.00,000.00,029.6,028.0,000.0,038.0,031.1,27.0,0001.2,0012.95,0006.10,0005.48
2023-07-16 14:10:00,SystemResetWarning,0835.9,4.99,000.00,029.6,028.2,000.0,038.1,031.2,27.3,0001.1,0013.64,0006.40,0005.77
2023-07-16 14:11:00,SystemResetWarning,0836.0,4.99,000.00,029.6,028.3,000.0,038.1,031.2,27.8,0000.8,0013.92,0006.71,0006.03
2023-07-16 14:12:00,SystemResetWarning,0836.1,5.00,000.00,029.7,028.4,000.0,038.1,031.3,27.9,0001.2,0014.95,0006.99,0006.29
2023-07-16 14:13:00,SystemResetWarning,0836.1,5.00,000.00,029.7,028.5,000.0,038.1,031.3,27.7,0001.3,0015.29,0007.31,0006.58
2023-07-16 14:14:00,SystemResetWarning,0836.2,5.00,000.00,029.7,028.5,000.0,038.1,031.3,28.1,0000.8,0015.18,0007.57,0006.85
2023-07-16 14:15:00,SystemResetWarning,0836.2,5.01,000.00,029.7,028.5,000.0,038.1,031.4,27.8,0000.9,0015.33,0007.80,0007.10
2023-07-16 14:16:00,SystemResetWarning,0836.2,4.99,000.00,029.8,027.3,000.0,038.0,031.3,27.9,0001.2,0015.24,0007.92,0007.26
2023-07-16 14:17:00,SystemResetWarning,0836.2,5.00,000.00,029.7,025.5,000.0,037.9,031.0,27.8,0001.2,0014.16,0008.12,0007.46
2023-07-16 14:18:00,SystemResetWarning,0836.1,5.01,000.00,029.6,025.2,000.0,037.8,030.8,28.1,0001.2,0015.14,0008.33,0007.67
2023-07-16 14:19:00,SystemResetWarning,0836.2,5.01,000.00,029.5,025.4,000.0,037.9,030.7,28.2,0001.1,0015.09,0008.47,0007.81
2023-07-16 14:20:00,SystemResetWarning,0836.1,4.98,000.00,029.4,025.9,000.0,037.9,030.7,28.2,0000.7,0015.30,0008.60,0007.94
2023-07-16 14:21:00,SystemResetWarning,0836.1,5.00,000.00,029.4,026.3,000.0,037.9,030.7,28.2,0000.3,0015.20,0008.71,0008.03
2023-07-16 14:22:00,SystemResetWarning,0836.2,5.01,000.00,029.4,026.7,000.0,037.9,030.8,28.7,0000.4,0015.09,0008.83,0008.16
2023-07-16 14:23:00,SystemResetWarning,0836.1,5.00,000.00,029.4,027.0,000.0,037.9,030.9,28.0,-000.0,0014.72,0008.99,0008.31
2023-07-16 14:24:00,SystemResetWarning,0836.1,5.00,000.00,029.4,027.3,000.0,037.9,030.9,28.0,-000.4,0015.15,0009.12,0008.45
2023-07-16 14:25:00,SystemResetWarning,0836.2,5.00,000.00,029.4,027.5,000.0,037.9,031.0,28.2,-000.2,0015.19,0009.27,0008.60
2023-07-16 14:26:00,SystemResetWarning,0836.2,4.99,000.00,029.4,027.7,000.0,037.9,031.0,28.7,-000.4,0015.41,0009.43,0008.73
2023-07-16 14:27:00,SystemResetWarning,0836.2,4.99,000.00,029.5,027.9,000.0,038.0,031.1,28.4,-000.8,0015.73,0009.63,0008.87
2023-07-16 14:28:00,SystemResetWarning,0836.2,5.00,000.00,029.5,028.1,000.0,038.0,031.1,28.2,-001.0,0015.95,0009.78,0009.00
2023-07-16 14:29:00,SystemResetWarning,0836.2,5.01,000.00,029.5,028.2,000.0,038.0,031.2,28.2,-001.0,0015.30,0009.90,0009.13
2023-07-16 14:30:00,SystemResetWarning,0836.2,5.01,000.00,029.6,028.3,000.0,038.0,031.2,28.1,-000.9,0015.27,0010.05,0009.27
2023-07-16 14:31:00,SystemResetWarning,0836.2,4.99,000.00,029.6,028.3,000.0,038.0,031.2,27.4,-000.8,0016.36,0010.25,0009.44
2023-07-16 14:32:00,SystemResetWarning,0836.3,4.98,000.00,029.6,027.2,000.0,037.9,031.1,27.7,-000.6,0017.01,0010.42,0009.60
2023-07-16 14:33:00,SystemResetWarning,0836.3,5.01,000.00,029.5,025.5,000.0,037.8,030.8,28.0,-000.5,0017.31,0010.56,0009.75
2023-07-16 14:34:00,SystemResetWarning,0836.2,5.01,000.00,029.4,025.1,000.0,037.7,030.7,28.1,-000.5,0017.46,0010.64,0009.86
2023-07-16 14:35:00,SystemResetWarning,0836.2,5.00,000.00,029.3,025.4,000.0,037.7,030.5,27.8,-000.4,0016.99,0010.74,0009.97
2023-07-16 14:36:00,SystemResetWarning,0836.2,5.01,000.00,029.3,025.8,000.0,037.8,030.5,27.7,-000.5,0017.27,0010.82,0010.06
2023-07-16 14:37:00,SystemResetWarning,0836.3,5.00,000.00,029.2,026.2,000.0,037.8,030.6,27.7,-000.5,0018.45,0010.88,0010.15
2023-07-16 14:38:00,SystemResetWarning,0836.2,5.00,000.00,029.3,026.6,000.0,037.8,030.7,28.2,-000.4,0018.74,0010.99,0010.23
2023-07-16 14:39:00,SystemResetWarning,0836.3,5.00,000.00,029.3,026.9,000.0,037.8,030.7,28.4,-000.2,0018.94,0010.98,0010.26
2023-07-16 14:40:00,SystemResetWarning,0836.3,5.00,000.00,029.3,027.2,000.0,037.8,030.8,27.8,0000.0,0019.08,0011.02,0010.28
2023-07-16 14:41:00,SystemResetWarning,0836.3,5.00,000.00,029.3,027.5,000.0,037.8,030.9,28.0,0000.0,0019.38,0011.03,0010.29
2023-07-16 14:42:00,SystemResetWarning,0836.3,5.00,000.00,029.3,027.7,000.0,037.8,030.9,28.3,0000.2,0018.61,0011.00,0010.28
2023-07-16 14:43:00,SystemResetWarning,0836.2,5.00,000.00,029.3,027.9,000.0,037.8,031.0,28.6,0000.2,0018.39,0010.99,0010.28
2023-07-16 14:44:00,SystemResetWarning,0836.3,4.99,000.00,029.4,028.0,000.0,037.8,031.0,28.0,0000.5,0018.97,0011.00,0010.29
2023-07-16 14:45:00,SystemResetWarning,0836.3,4.99,000.00,029.4,028.1,000.0,037.8,031.1,27.9,0000.4,0018.82,0010.98,0010.26
2023-07-16 14:46:00,SystemResetWarning,0836.2,5.00,000.00,029.5,028.2,000.0,037.9,031.1,27.9,0000.3,0019.17,0010.95,0010.20
2023-07-16 14:47:00,SystemResetWarning,0836.2,5.00,000.00,029.5,027.9,000.0,037.8,031.1,28.0,0000.5,0019.78,0010.91,0010.14
2023-07-16 14:48:00,SystemResetWarning,0836.2,5.00,000.00,029.5,026.1,000.0,037.7,030.9,27.7,0000.4,0019.28,0010.85,0010.06
2023-07-16 14:49:00,SystemResetWarning,0836.2,5.01,000.00,029.4,025.1,000.0,037.6,030.7,28.0,0000.4,0018.87,0010.70,0009.96
2023-07-16 14:50:00,SystemResetWarning,0836.2,5.02,000.00,029.3,025.2,000.0,037.6,030.5,27.8,0000.4,0018.58,0010.63,0009.91
2023-07-16 14:51:00,SystemResetWarning,0836.3,4.99,000.00,029.2,025.6,000.0,037.6,030.5,28.3,0000.2,0018.77,0010.54,0009.86
2023-07-16 14:52:00,SystemResetWarning,0836.3,5.00,000.00,029.2,026.0,000.0,037.7,030.5,28.6,0000.2,0018.42,0010.43,0009.79
2023-07-16 14:53:00,SystemResetWarning,0836.3,5.00,000.00,029.2,026.4,000.0,037.7,030.6,28.2,0000.3,0018.51,0010.38,0009.75
2023-07-16 14:54:00,SystemResetWarning,0836.2,5.00,000.00,029.2,026.8,000.0,037.7,030.7,28.6,0000.1,0018.09,0010.34,0009.71
2023-07-16 14:55:00,SystemResetWarning,0836.3,5.00,000.00,029.2,027.1,000.0,037.7,030.7,27.6,-000.3,0017.31,0010.29,0009.66
2023-07-16 14:56:00,SystemResetWarning,0836.3,5.00,000.00,029.2,027.4,000.0,037.7,030.8,27.2,0000.1,0017.66,0010.26,0009.64
2023-07-16 14:57:00,SystemResetWarning,0836.3,5.00,000.00,029.2,027.6,000.0,037.7,030.8,27.9,0000.3,0017.81,0010.24,0009.65
2023-07-16 14:58:00,SystemResetWarning,0836.3,5.00,000.00,029.3,027.8,000.0,037.7,030.9,27.9,0000.2,0017.77,0010.22,0009.65
2023-07-16 14:59:00,SystemResetWarning,0836.3,4.99,000.00,029.3,027.9,000.0,037.7,030.9,27.8,0000.1,0017.30,0010.21,0009.65
